Total_Precipitation_Accumulation
0.00 0.00 0.01 0.01 0.01 0.01 0.03 0.06 0.14 0.16 0.14 0.20 0.34 0.58 0.70 0.62 0.63 0.65 0.72 0.91 0.90 0.90 1.01 1.26 1.48 1.70 2.11 2.71 3.22 3.33 3.04 2.38 1.94 1.66 1.51 1.30 1.14 1.02 0.95 0.87 0.78 0.69 0.69 0.64
0.01 0.02 0.01 0.01 0.01 0.02 0.04 0.08 0.15 0.15 0.11 0.13 0.32 0.61 0.67 0.69 0.73 0.66 0.68 0.76 0.65 0.70 0.90 1.31 1.77 2.14 2.48 2.71 2.81 2.62 2.19 1.56 1.20 0.98 0.84 0.68 0.57 0.54 0.54 0.52 0.52 0.53 0.54 0.54
0.02 0.03 0.02 0.01 0.02 0.04 0.07 0.07 0.13 0.16 0.12 0.13 0.31 0.68 0.78 0.73 0.70 0.64 0.52 0.53 0.61 0.74 1.15 1.75 2.30 2.62 2.59 2.40 1.99 1.51 1.11 0.78 0.66 0.52 0.44 0.32 0.26 0.24 0.25 0.27 0.30 0.33 0.33 0.33
0.02 0.03 0.02 0.02 0.04 0.05 0.08 0.06 0.05 0.06 0.10 0.29 0.40 0.76 0.79 0.78 0.73 0.51 0.48 0.55 0.65 0.85 1.31 1.90 2.27 2.22 2.05 1.71 1.20 0.84 0.62 0.46 0.37 0.31 0.30 0.26 0.21 0.20 0.21 0.22 0.23 0.24 0.22 0.23
0.02 0.03 0.03 0.03 0.04 0.04 0.05 0.04 0.04 0.07 0.14 0.27 0.37 0.57 0.74 0.73 0.75 0.40 0.34 0.45 0.55 0.75 0.95 1.11 1.19 1.11 0.95 0.75 0.70 0.64 0.52 0.45 0.41 0.35 0.31 0.27 0.22 0.20 0.20 0.21 0.22 0.25 0.25 0.23
0.03 0.03 0.03 0.03 0.03 0.03 0.04 0.05 0.11 0.19 0.30 0.53 0.51 0.61 0.79 0.76 0.65 0.32 0.19 0.25 0.43 0.54 0.54 0.50 0.43 0.36 0.35 0.32 0.33 0.33 0.33 0.39 0.42 0.39 0.33 0.30 0.26 0.22 0.20 0.18 0.19 0.20 0.23 0.25
0.09 0.07 0.05 0.05 0.05 0.05 0.04 0.08 0.29 0.57 0.79 0.78 0.44 0.48 0.75 0.73 0.46 0.21 0.10 0.09 0.17 0.30 0.37 0.39 0.36 0.29 0.26 0.22 0.20 0.18 0.18 0.20 0.22 0.24 0.25 0.25 0.25 0.22 0.20 0.18 0.15 0.17 0.17 0.20
0.14 0.13 0.08 0.05 0.05 0.06 0.05 0.06 0.16 0.28 0.33 0.40 0.42 0.80 0.89 0.48 0.24 0.12 0.05 0.04 0.09 0.16 0.22 0.25 0.23 0.21 0.17 0.14 0.12 0.10 0.10 0.10 0.09 0.10 0.12 0.13 0.16 0.17 0.18 0.21 0.17 0.17 0.18 0.20
0.06 0.07 0.06 0.05 0.06 0.05 0.04 0.03 0.05 0.07 0.12 0.29 0.51 0.74 0.54 0.27 0.18 0.07 0.03 0.02 0.04 0.08 0.10 0.10 0.10 0.09 0.08 0.07 0.08 0.07 0.06 0.05 0.04 0.04 0.06 0.07 0.10 0.13 0.15 0.17 0.17 0.17 0.22 0.21
0.04 0.03 0.04 0.04 0.06 0.06 0.05 0.04 0.04 0.06 0.12 0.24 0.40 0.67 0.59 0.29 0.16 0.05 0.02 0.02 0.04 0.05 0.06 0.06 0.05 0.05 0.04 0.04 0.04 0.04 0.04 0.03 0.02 0.02 0.02 0.02 0.04 0.08 0.10 0.11 0.13 0.15 0.16 0.19
0.03 0.02 0.04 0.05 0.06 0.07 0.06 0.05 0.05 0.05 0.06 0.10 0.24 0.39 0.25 0.15 0.07 0.02 0.01 0.01 0.02 0.03 0.03 0.03 0.03 0.02 0.02 0.02 0.02 0.03 0.03 0.03 0.02 0.02 0.01 0.01 0.03 0.05 0.07 0.10 0.13 0.15 0.13 0.13
0.02 0.02 0.03 0.06 0.08 0.08 0.07 0.06 0.06 0.07 0.06 0.05 0.10 0.15 0.10 0.08 0.05 0.02 0.01 0.00 0.01 0.01 0.01 0.01 0.01 0.01 0.01 0.01 0.01 0.02 0.02 0.02 0.02 0.02 0.02 0.01 0.02 0.02 0.04 0.07 0.10 0.11 0.12 0.12
0.02 0.02 0.04 0.11 0.15 0.10 0.06 0.05 0.05 0.05 0.04 0.04 0.11 0.16 0.09 0.04 0.03 0.02 0.01 0.00 0.00 0.00 0.00 0.00 0.00 0.01 0.01 0.01 0.02 0.02 0.02 0.01 0.01 0.01 0.01 0.01 0.01 0.01 0.02 0.04 0.05 0.07 0.09 0.12
0.02 0.01 0.02 0.09 0.14 0.13 0.08 0.06 0.06 0.04 0.03 0.03 0.07 0.15 0.07 0.04 0.02 0.01 0.01 0.01 0.00 0.00 0.00 0.00 0.00 0.00 0.01 0.01 0.01 0.01 0.01 0.01 0.01 0.01 0.01 0.01 0.02 0.02 0.02 0.03 0.03 0.05 0.07 0.10
0.02 0.01 0.01 0.01 0.04 0.06 0.08 0.09 0.06 0.04 0.02 0.04 0.04 0.06 0.04 0.02 0.01 0.01 0.01 0.01 0.01 0.00 0.00 0.01 0.01 0.01 0.01 0.01 0.02 0.02 0.03 0.03 0.04 0.04 0.05 0.05 0.05 0.06 0.06 0.06 0.06 0.06 0.07 0.08
0.03 0.03 0.01 0.01 0.03 0.04 0.06 0.10 0.06 0.03 0.03 0.02 0.02 0.03 0.03 0.02 0.02 0.03 0.03 0.03 0.03 0.03 0.04 0.04 0.05 0.05 0.05 0.05 0.05 0.04 0.05 0.05 0.05 0.06 0.05 0.04 0.05 0.05 0.06 0.06 0.06 0.06 0.08 0.12
0.03 0.02 0.02 0.01 0.03 0.03 0.08 0.08 0.06 0.07 0.06 0.05 0.06 0.06 0.07 0.08 0.09 0.12 0.14 0.15 0.15 0.14 0.11 0.09 0.07 0.05 0.03 0.02 0.02 0.02 0.03 0.03 0.03 0.04 0.04 0.05 0.05 0.06 0.06 0.06 0.07 0.09 0.12 0.16
0.03 0.03 0.02 0.02 0.03 0.07 0.08 0.07 0.06 0.07 0.09 0.09 0.11 0.14 0.17 0.21 0.25 0.31 0.33 0.26 0.17 0.10 0.07 0.05 0.04 0.03 0.02 0.02 0.02 0.03 0.03 0.04 0.04 0.05 0.06 0.07 0.08 0.08 0.09 0.11 0.13 0.17 0.21 0.23
0.05 0.05 0.04 0.03 0.04 0.05 0.06 0.09 0.11 0.11 0.12 0.14 0.21 0.25 0.29 0.29 0.23 0.19 0.14 0.10 0.08 0.07 0.06 0.06 0.06 0.05 0.04 0.04 0.04 0.04 0.04 0.05 0.06 0.08 0.10 0.13 0.14 0.15 0.17 0.21 0.25 0.30 0.32 0.32
0.08 0.08 0.10 0.09 0.09 0.09 0.10 0.14 0.16 0.17 0.25 0.24 0.25 0.22 0.18 0.16 0.19 0.16 0.11 0.09 0.08 0.07 0.07 0.06 0.06 0.05 0.05 0.06 0.06 0.05 0.06 0.07 0.09 0.11 0.13 0.16 0.21 0.26 0.29 0.33 0.37 0.40 0.42 0.41
0.14 0.18 0.16 0.14 0.13 0.11 0.15 0.13 0.12 0.22 0.28 0.25 0.25 0.22 0.21 0.21 0.23 0.22 0.15 0.10 0.09 0.09 0.08 0.07 0.06 0.05 0.06 0.08 0.09 0.11 0.13 0.14 0.15 0.16 0.16 0.18 0.23 0.32 0.35 0.40 0.44 0.49 0.50 0.51
0.11 0.15 0.19 0.21 0.26 0.21 0.21 0.18 0.21 0.26 0.23 0.22 0.21 0.18 0.17 0.15 0.12 0.11 0.11 0.10 0.09 0.09 0.09 0.08 0.08 0.08 0.08 0.10 0.13 0.16 0.18 0.18 0.19 0.20 0.22 0.22 0.27 0.35 0.37 0.46 0.50 0.56 0.60 0.62
0.11 0.13 0.16 0.22 0.24 0.19 0.20 0.21 0.21 0.21 0.20 0.17 0.16 0.13 0.13 0.14 0.13 0.09 0.09 0.10 0.09 0.08 0.07 0.07 0.08 0.09 0.10 0.13 0.17 0.22 0.22 0.23 0.24 0.24 0.25 0.28 0.33 0.44 0.58 0.62 0.59 0.63 0.68 0.67
0.09 0.08 0.12 0.18 0.22 0.23 0.23 0.22 0.17 0.15 0.13 0.09 0.10 0.13 0.11 0.10 0.10 0.10 0.10 0.09 0.07 0.06 0.05 0.06 0.07 0.08 0.10 0.11 0.14 0.19 0.23 0.27 0.31 0.31 0.29 0.32 0.38 0.51 0.74 0.87 0.81 0.74 0.74 0.73
0.05 0.08 0.12 0.17 0.20 0.19 0.19 0.14 0.10 0.09 0.08 0.08 0.08 0.08 0.07 0.04 0.04 0.05 0.05 0.03 0.03 0.03 0.04 0.05 0.07 0.10 0.11 0.11 0.15 0.20 0.26 0.34 0.37 0.35 0.32 0.33 0.39 0.53 0.75 0.92 0.91 0.77 0.74 0.72
0.03 0.05 0.08 0.13 0.15 0.15 0.17 0.12 0.10 0.11 0.11 0.11 0.09 0.07 0.05 0.03 0.02 0.02 0.02 0.02 0.02 0.03 0.05 0.08 0.10 0.12 0.14 0.17 0.22 0.26 0.32 0.40 0.45 0.42 0.39 0.39 0.43 0.52 0.73 0.95 1.02 0.82 0.64 0.62